Time,TemperatureF,DewpointF,PressureIn,WindDirection,WindDirectionDegrees,WindSpeedMPH,WindSpeedGustMPH,Humidity,HourlyPrecipIn,Conditions,Clouds,dailyrainin,SoftwareType,DateUTC
2013-05-15 00:01:00,56.1,40.1,29.73,ESE,112,3.5,3.5,55,0.00,SCT,,0.00,WeatherDisplay:10.37,2013-05-15 04:01:00,
2013-05-15 00:02:00,56.1,40.1,29.73,ESE,112,3.5,3.5,55,0.00,SCT,,0.00,WeatherDisplay:10.37,2013-05-15 04:02:00,
2013-05-15 00:05:00,56.1,40.1,29.73,SE,135,3.5,3.5,55,0.00,SCT,,0.00,WeatherDisplay:10.37,2013-05-15 04:05:00,
2013-05-15 00:10:00,56.1,40.1,29.73,SE,135,3.5,3.5,55,0.00,SCT,,0.00,WeatherDisplay:10.37,2013-05-15 04:10:00,
2013-05-15 00:15:00,56.1,40.1,29.73,ESE,112,3.5,3.5,55,0.00,SCT,,0.00,WeatherDisplay:10.37,2013-05-15 04:15:00,
2013-05-15 00:20:00,56.1,40.1,29.73,ESE,112,3.5,3.5,55,0.00,SCT,,0.00,WeatherDisplay:10.37,2013-05-15 04:20:00,
2013-05-15 00:25:00,55.9,40.0,29.73,SE,135,3.5,3.5,55,0.00,SCT,,0.00,WeatherDisplay:10.37,2013-05-15 04:25:00,
2013-05-15 00:30:00,55.9,40.4,29.73,SE,135,2.3,2.5,56,0.00,SCT,,0.00,WeatherDisplay:10.37,2013-05-15 04:30:00,
2013-05-15 00:35:00,55.8,40.3,29.73,ESE,112,2.3,2.3,56,0.00,SCT,,0.00,WeatherDisplay:10.37,2013-05-15 04:35:00,
2013-05-15 00:40:00,55.9,40.4,29.72,ESE,112,3.7,3.7,56,0.00,SCT,,0.00,WeatherDisplay:10.37,2013-05-15 04:40:00,
2013-05-15 00:45:00,55.9,40.4,29.72,SSE,158,2.3,2.3,56,0.00,SCT,,0.00,WeatherDisplay:10.37,2013-05-15 04:45:00,
2013-05-15 00:50:00,56.3,40.8,29.71,ESE,112,2.3,2.3,56,0.00,SCT,,0.00,WeatherDisplay:10.37,2013-05-15 04:50:00,
2013-05-15 00:55:00,56.3,40.3,29.71,East,90,2.3,2.3,55,0.00,SCT,,0.00,WeatherDisplay:10.37,2013-05-15 04:55:00,
2013-05-15 01:00:00,55.9,40.0,29.71,ESE,112,2.3,2.3,55,0.00,SCT,,0.00,WeatherDisplay:10.37,2013-05-15 05:00:00,
2013-05-15 01:05:00,55.9,40.0,29.71,ESE,112,2.7,2.7,55,0.00,FEW,,0.00,WeatherDisplay:10.37,2013-05-15 05:05:00,
2013-05-15 01:10:00,56.1,40.1,29.71,ESE,112,3.7,3.7,55,0.00,FEW,,0.00,WeatherDisplay:10.37,2013-05-15 05:10:00,
2013-05-15 01:15:00,56.3,40.3,29.71,ENE,68,1.7,1.7,55,0.00,FEW,,0.00,WeatherDisplay:10.37,2013-05-15 05:15:00,
2013-05-15 01:20:00,56.1,40.1,29.71,East,90,3.5,3.5,55,0.00,FEW,,0.00,WeatherDisplay:10.37,2013-05-15 05:20:00,
2013-05-15 01:25:00,56.3,40.3,29.71,SSW,202,3.7,3.7,55,0.00,FEW,,0.00,WeatherDisplay:10.37,2013-05-15 05:25:00,
2013-05-15 01:30:00,56.5,40.5,29.71,East,90,3.5,3.5,55,0.00,FEW,,0.00,WeatherDisplay:10.37,2013-05-15 05:30:00,
2013-05-15 01:35:00,56.5,40.5,29.71,ESE,112,3.5,3.5,55,0.00,FEW,,0.00,WeatherDisplay:10.37,2013-05-15 05:35:00,
2013-05-15 01:40:00,56.5,40.5,29.71,ESE,112,3.5,3.5,55,0.00,FEW,,0.00,WeatherDisplay:10.37,2013-05-15 05:40:00,
2013-05-15 01:45:00,56.5,40.5,29.71,ESE,112,3.5,3.5,55,0.00,FEW,,0.00,WeatherDisplay:10.37,2013-05-15 05:45:00,
2013-05-15 01:50:00,56.3,40.3,29.70,SE,135,3.5,3.5,55,0.00,FEW,,0.00,WeatherDisplay:10.37,2013-05-15 05:50:00,
2013-05-15 01:55:00,56.1,40.1,29.70,ESE,112,4.2,4.2,55,0.00,FEW,,0.00,WeatherDisplay:10.37,2013-05-15 05:55:00,
2013-05-15 02:00:00,55.9,40.4,29.70,ESE,112,1.1,0.0,56,0.00,FEW,,0.00,WeatherDisplay:10.37,2013-05-15 06:00:00,
2013-05-15 02:05:00,55.8,40.8,29.70,SE,135,0.0,0.5,57,0.00,FEW,,0.00,WeatherDisplay:10.37,2013-05-15 06:05:00,
2013-05-15 02:10:00,55.8,40.8,29.70,SW,225,1.1,0.0,57,0.00,FEW,,0.00,WeatherDisplay:10.37,2013-05-15 06:10:00,
2013-05-15 02:15:00,55.6,40.6,29.70,SSW,202,0.0,0.0,57,0.00,FEW,,0.00,WeatherDisplay:10.37,2013-05-15 06:15:00,
2013-05-15 02:20:00,55.2,41.5,29.70,SSW,202,2.3,2.3,60,0.00,FEW,,0.00,WeatherDisplay:10.37,2013-05-15 06:20:00,
2013-05-15 02:25:00,55.0,40.9,29.70,ESE,112,0.0,0.0,59,0.00,FEW,,0.00,WeatherDisplay:10.37,2013-05-15 06:25:00,
2013-05-15 02:30:00,55.9,40.9,29.70,East,90,1.7,1.7,57,0.00,FEW,,0.00,WeatherDisplay:10.37,2013-05-15 06:30:00,
2013-05-15 02:35:00,55.8,40.8,29.70,East,90,1.1,1.1,57,0.00,FEW,,0.00,WeatherDisplay:10.37,2013-05-15 06:35:00,
2013-05-15 02:40:00,55.9,41.3,29.70,ESE,112,1.1,1.1,58,0.00,FEW,,0.00,WeatherDisplay:10.37,2013-05-15 06:40:00,
2013-05-15 02:45:00,56.1,41.1,29.70,ESE,112,1.1,1.1,57,0.00,FEW,,0.00,WeatherDisplay:10.37,2013-05-15 06:45:00,
2013-05-15 02:50:00,56.3,41.3,29.69,East,90,0.0,0.0,57,0.00,FEW,,0.00,WeatherDisplay:10.37,2013-05-15 06:50:00,
2013-05-15 02:55:00,56.1,41.1,29.69,ESE,112,2.2,2.2,57,0.00,FEW,,0.00,WeatherDisplay:10.37,2013-05-15 06:55:00,
2013-05-15 03:00:00,56.3,41.3,29.69,SSW,202,2.3,2.3,57,0.00,FEW,,0.00,WeatherDisplay:10.37,2013-05-15 07:00:00,
2013-05-15 03:05:00,55.9,41.8,29.68,West,270,2.7,2.7,59,0.00,FEW,,0.00,WeatherDisplay:10.37,2013-05-15 07:05:00,
2013-05-15 03:10:00,55.9,42.2,29.68,SSW,202,3.5,3.5,60,0.00,FEW,,0.00,WeatherDisplay:10.37,2013-05-15 07:10:00,
2013-05-15 03:15:00,55.9,42.2,29.69,South,180,1.1,1.6,60,0.00,FEW,,0.00,WeatherDisplay:10.37,2013-05-15 07:15:00,
2013-05-15 03:20:00,56.1,42.0,29.69,SSW,202,2.3,2.3,59,0.00,FEW,,0.00,WeatherDisplay:10.37,2013-05-15 07:20:00,
2013-05-15 03:25:00,56.1,42.4,29.69,West,270,3.2,3.2,60,0.00,FEW,,0.00,WeatherDisplay:10.37,2013-05-15 07:25:00,
2013-05-15 03:30:00,56.5,42.8,29.69,West,270,4.6,4.6,60,0.00,FEW,,0.00,WeatherDisplay:10.37,2013-05-15 07:30:00,
2013-05-15 03:35:00,56.5,42.8,29.69,WSW,248,3.7,3.7,60,0.00,FEW,,0.00,WeatherDisplay:10.37,2013-05-15 07:35:00,
2013-05-15 03:40:00,56.5,42.8,29.69,SW,225,2.3,2.9,60,0.00,FEW,,0.00,WeatherDisplay:10.37,2013-05-15 07:40:00,
2013-05-15 03:45:00,56.8,43.1,29.69,WSW,248,3.5,3.5,60,0.00,FEW,,0.00,WeatherDisplay:10.37,2013-05-15 07:45:00,
2013-05-15 03:50:00,57.2,43.4,29.68,SSW,202,4.6,4.6,60,0.00,FEW,,0.00,WeatherDisplay:10.37,2013-05-15 07:50:00,
2013-05-15 03:55:00,57.2,43.4,29.68,WSW,248,5.8,5.8,60,0.00,FEW,,0.00,WeatherDisplay:10.37,2013-05-15 07:55:00,
2013-05-15 04:00:00,57.2,43.4,29.68,SW,225,4.2,4.2,60,0.00,FEW,,0.00,WeatherDisplay:10.37,2013-05-15 08:00:00,
2013-05-15 04:05:00,57.4,44.1,29.68,SW,225,4.2,4.2,61,0.00,CLR,,0.00,WeatherDisplay:10.37,2013-05-15 08:05:00,
2013-05-15 04:10:00,57.4,43.6,29.68,WSW,248,5.8,5.8,60,0.00,CLR,,0.00,WeatherDisplay:10.37,2013-05-15 08:10:00,
2013-05-15 04:15:00,57.7,43.9,29.69,SW,225,5.8,5.8,60,0.00,CLR,,0.00,WeatherDisplay:10.37,2013-05-15 08:15:00,
2013-05-15 04:20:00,57.9,44.1,29.69,SSW,202,5.8,5.8,60,0.00,CLR,,0.00,WeatherDisplay:10.37,2013-05-15 08:20:00,
2013-05-15 04:25:00,57.7,44.8,29.69,SSW,202,5.8,5.8,62,0.00,CLR,,0.00,WeatherDisplay:10.37,2013-05-15 08:25:00,
2013-05-15 04:30:00,57.9,44.5,29.69,SSW,202,5.8,5.8,61,0.00,CLR,,0.00,WeatherDisplay:10.37,2013-05-15 08:30:00,
2013-05-15 04:35:00,58.1,44.7,29.69,SW,225,4.7,5.0,61,0.00,CLR,,0.00,WeatherDisplay:10.37,2013-05-15 08:35:00,
2013-05-15 04:40:00,58.1,44.7,29.68,SSW,202,4.6,4.6,61,0.00,CLR,,0.00,WeatherDisplay:10.37,2013-05-15 08:40:00,
2013-05-15 04:45:00,58.1,45.6,29.68,WSW,248,5.3,5.3,63,0.00,CLR,,0.00,WeatherDisplay:10.37,2013-05-15 08:45:00,
2013-05-15 04:50:00,58.3,46.2,29.69,SW,225,5.8,5.8,64,0.00,CLR,,0.00,WeatherDisplay:10.37,2013-05-15 08:50:00,
2013-05-15 04:55:00,58.3,46.6,29.69,SSE,158,6.3,6.3,65,0.00,CLR,,0.00,WeatherDisplay:10.37,2013-05-15 08:55:00,
2013-05-15 05:00:00,58.1,47.2,29.69,SSW,202,5.8,5.8,67,0.00,CLR,,0.00,WeatherDisplay:10.37,2013-05-15 09:00:00,
2013-05-15 05:05:00,57.6,47.5,29.69,SW,225,4.7,4.7,69,0.00,-RA,,0.00,WeatherDisplay:10.37,2013-05-15 09:05:00,
2013-05-15 05:10:00,57.2,48.3,29.69,SW,225,6.3,6.3,72,0.00,-RA,,0.00,WeatherDisplay:10.37,2013-05-15 09:10:00,
2013-05-15 05:15:00,56.8,48.6,29.68,SW,225,5.8,5.8,74,0.00,-RA,,0.00,WeatherDisplay:10.37,2013-05-15 09:15:00,
2013-05-15 05:20:00,56.8,49.0,29.68,SSW,202,4.7,4.7,75,0.00,-RA,,0.00,WeatherDisplay:10.37,2013-05-15 09:20:00,
2013-05-15 05:25:00,56.7,49.2,29.68,SW,225,5.8,5.8,76,0.00,-RA,,0.00,WeatherDisplay:10.37,2013-05-15 09:25:00,
2013-05-15 05:30:00,56.8,49.0,29.68,WSW,248,4.6,4.6,75,0.00,-RA,,0.00,WeatherDisplay:10.37,2013-05-15 09:30:00,
2013-05-15 05:35:00,56.8,49.0,29.68,SSW,202,4.2,4.2,75,0.00,-RA,,0.00,WeatherDisplay:10.37,2013-05-15 09:35:00,
2013-05-15 05:40:00,57.0,49.2,29.68,SSW,202,5.8,5.8,75,0.00,-RA,,0.00,WeatherDisplay:10.37,2013-05-15 09:40:00,
2013-05-15 05:45:00,57.0,49.2,29.68,SW,225,5.8,5.8,75,0.00,-RA,,0.00,WeatherDisplay:10.37,2013-05-15 09:45:00,
2013-05-15 05:50:00,57.2,49.3,29.68,SW,225,4.6,4.6,75,0.00,-RA,,0.00,WeatherDisplay:10.37,2013-05-15 09:50:00,
2013-05-15 05:55:00,57.2,49.3,29.68,SW,225,4.6,4.6,75,0.00,-RA,,0.00,WeatherDisplay:10.37,2013-05-15 09:55:00,
2013-05-15 06:00:00,57.0,49.5,29.68,West,270,3.7,3.7,76,0.00,-RA,,0.00,WeatherDisplay:10.37,2013-05-15 10:00:00,
2013-05-15 06:05:00,57.2,49.7,29.68,SW,225,4.6,4.6,76,0.00,-RA,,0.00,WeatherDisplay:10.37,2013-05-15 10:05:00,
2013-05-15 06:10:00,57.4,49.9,29.68,SSW,202,5.8,5.8,76,0.00,-RA,,0.00,WeatherDisplay:10.37,2013-05-15 10:10:00,
2013-05-15 06:15:00,57.4,49.5,29.67,WSW,248,4.6,4.6,75,0.00,-RA,,0.00,WeatherDisplay:10.37,2013-05-15 10:15:00,
2013-05-15 06:20:00,57.4,49.9,29.67,SSW,202,5.8,5.8,76,0.00,-RA,,0.00,WeatherDisplay:10.37,2013-05-15 10:20:00,
2013-05-15 06:25:00,57.4,49.9,29.67,SW,225,4.7,4.7,76,0.00,-RA,,0.00,WeatherDisplay:10.37,2013-05-15 10:25:00,
2013-05-15 06:30:00,57.9,50.4,29.67,West,270,5.3,5.3,76,0.00,-RA,,0.00,WeatherDisplay:10.37,2013-05-15 10:30:00,
2013-05-15 06:35:00,58.1,50.6,29.67,South,180,5.8,5.8,76,0.00,-RA,,0.00,WeatherDisplay:10.37,2013-05-15 10:35:00,
2013-05-15 06:40:00,58.1,50.6,29.68,SW,225,4.6,4.6,76,0.00,-RA,,0.00,WeatherDisplay:10.37,2013-05-15 10:40:00,
2013-05-15 06:46:00,58.3,50.8,29.68,WSW,248,3.5,3.5,76,0.00,-RA,,0.00,WeatherDisplay:10.37,2013-05-15 10:46:00,
2013-05-15 06:51:00,58.5,51.3,29.67,SW,225,4.6,4.6,77,0.00,-RA,,0.00,WeatherDisplay:10.37,2013-05-15 10:51:00,
2013-05-15 06:56:00,58.5,51.3,29.67,SW,225,6.3,6.3,77,0.00,-RA,,0.00,WeatherDisplay:10.37,2013-05-15 10:56:00,
2013-05-15 07:01:00,58.8,51.6,29.67,SW,225,4.6,4.6,77,0.00,SCT,,0.00,WeatherDisplay:10.37,2013-05-15 11:01:00,
2013-05-15 07:06:00,59.0,51.8,29.68,WSW,248,5.8,5.8,77,0.00,SCT,,0.00,WeatherDisplay:10.37,2013-05-15 11:06:00,
2013-05-15 07:11:00,59.2,51.6,29.68,West,270,4.7,4.7,76,0.00,SCT,,0.00,WeatherDisplay:10.37,2013-05-15 11:11:00,
2013-05-15 07:16:00,59.2,52.0,29.69,SW,225,2.3,2.3,77,0.00,SCT,,0.00,WeatherDisplay:10.37,2013-05-15 11:16:00,
2013-05-15 07:22:00,59.7,52.5,29.69,SW,225,3.5,3.5,77,0.00,SCT,,0.00,WeatherDisplay:10.37,2013-05-15 11:22:00,
2013-05-15 07:27:00,59.7,52.5,29.68,SSW,202,4.7,4.7,77,0.00,SCT,,0.00,WeatherDisplay:10.37,2013-05-15 11:27:00,
2013-05-15 07:33:00,60.3,52.3,29.68,SW,225,6.9,6.9,75,0.00,SCT,,0.00,WeatherDisplay:10.37,2013-05-15 11:33:00,
2013-05-15 07:38:00,60.4,52.8,29.68,South,180,5.8,5.8,76,0.00,SCT,,0.00,WeatherDisplay:10.37,2013-05-15 11:38:00,
2013-05-15 07:43:00,60.6,53.0,29.68,West,270,5.8,5.8,76,0.00,SCT,,0.00,WeatherDisplay:10.37,2013-05-15 11:43:00,
2013-05-15 07:48:00,61.0,53.4,29.68,SW,225,8.1,8.1,76,0.00,SCT,,0.00,WeatherDisplay:10.37,2013-05-15 11:48:00,
2013-05-15 07:53:00,61.5,53.5,29.69,SW,225,8.3,8.3,75,0.00,SCT,,0.00,WeatherDisplay:10.37,2013-05-15 11:53:00,
2013-05-15 07:58:00,61.7,53.7,29.69,SSW,202,9.2,9.2,75,0.00,SCT,,0.00,WeatherDisplay:10.37,2013-05-15 11:58:00,
2013-05-15 08:03:00,61.9,53.9,29.69,SW,225,5.8,5.8,75,0.00,SCT,,0.00,WeatherDisplay:10.37,2013-05-15 12:03:00,
2013-05-15 08:09:00,62.2,54.2,29.69,SSW,202,7.3,7.3,75,0.00,SCT,,0.00,WeatherDisplay:10.37,2013-05-15 12:09:00,
2013-05-15 08:14:00,62.4,54.4,29.69,SSW,202,6.9,6.9,75,0.00,SCT,,0.00,WeatherDisplay:10.37,2013-05-15 12:14:00,
2013-05-15 08:19:00,62.6,54.2,29.69,SSW,202,9.2,9.2,74,0.00,SCT,,0.00,WeatherDisplay:10.37,2013-05-15 12:19:00,
2013-05-15 08:24:00,62.8,54.4,29.69,ESE,112,5.8,5.8,74,0.00,SCT,,0.00,WeatherDisplay:10.37,2013-05-15 12:24:00,
2013-05-15 08:29:00,63.0,54.6,29.69,ESE,112,6.9,6.9,74,0.00,SCT,,0.00,WeatherDisplay:10.37,2013-05-15 12:29:00,
2013-05-15 08:34:00,63.1,54.7,29.69,South,180,8.1,8.1,74,0.00,BKN,,0.00,WeatherDisplay:10.37,2013-05-15 12:34:00,
2013-05-15 08:39:00,63.1,54.7,29.66,SW,225,10.4,10.4,74,0.00,BKN,,0.00,WeatherDisplay:10.37,2013-05-15 12:39:00,
2013-05-15 08:44:00,63.3,54.9,29.66,SW,225,11.4,11.4,74,0.00,BKN,,0.00,WeatherDisplay:10.37,2013-05-15 12:44:00,
2013-05-15 08:49:00,63.5,55.1,29.66,NW,315,13.8,13.8,74,0.00,BKN,,0.00,WeatherDisplay:10.37,2013-05-15 12:49:00,
2013-05-15 08:54:00,63.5,55.1,29.66,WSW,248,13.0,13.0,74,0.00,BKN,,0.00,WeatherDisplay:10.37,2013-05-15 12:54:00,
2013-05-15 09:00:00,63.5,55.1,29.66,SW,225,13.8,13.8,74,0.00,BKN,,0.00,WeatherDisplay:10.37,2013-05-15 13:00:00,
2013-05-15 09:05:00,63.7,55.6,29.63,South,180,10.9,10.9,75,0.00,BKN,,0.00,WeatherDisplay:10.37,2013-05-15 13:05:00,
2013-05-15 09:10:00,64.4,56.3,29.63,WSW,248,12.7,12.7,75,0.00,BKN,,0.00,WeatherDisplay:10.37,2013-05-15 13:10:00,
2013-05-15 09:15:00,64.8,56.3,29.64,WSW,248,11.9,11.9,74,0.00,BKN,,0.00,WeatherDisplay:10.37,2013-05-15 13:15:00,
2013-05-15 09:20:00,64.9,56.0,29.64,West,270,17.3,17.3,73,0.00,BKN,,0.00,WeatherDisplay:10.37,2013-05-15 13:20:00,
2013-05-15 09:25:00,65.7,56.8,29.67,SW,225,12.7,12.7,73,0.00,BKN,,0.00,WeatherDisplay:10.37,2013-05-15 13:25:00,
2013-05-15 09:30:00,66.7,56.6,29.67,SW,225,17.3,17.3,70,0.00,BKN,,0.00,WeatherDisplay:10.37,2013-05-15 13:30:00,
2013-05-15 09:35:00,67.5,57.4,29.67,SW,225,10.4,10.4,70,0.00,BKN,,0.00,WeatherDisplay:10.37,2013-05-15 13:35:00,
2013-05-15 09:40:00,67.3,57.2,29.66,WSW,248,11.5,11.5,70,0.00,BKN,,0.00,WeatherDisplay:10.37,2013-05-15 13:40:00,
2013-05-15 09:46:00,67.3,57.2,29.66,SW,225,14.0,14.0,70,0.00,BKN,,0.00,WeatherDisplay:10.37,2013-05-15 13:46:00,
2013-05-15 09:51:00,68.0,57.8,29.64,WSW,248,11.5,11.5,70,0.00,BKN,,0.00,WeatherDisplay:10.37,2013-05-15 13:51:00,
2013-05-15 09:56:00,68.4,57.8,29.64,SW,225,10.4,10.4,69,0.00,BKN,,0.00,WeatherDisplay:10.37,2013-05-15 13:56:00,
2013-05-15 10:01:00,68.4,57.8,29.64,SW,225,8.1,8.1,69,0.00,BKN,,0.00,WeatherDisplay:10.37,2013-05-15 14:01:00,
2013-05-15 10:06:00,68.4,57.8,29.64,SW,225,8.1,8.1,69,0.00,BKN,,0.00,WeatherDisplay:10.37,2013-05-15 14:06:00,
2013-05-15 10:11:00,70.0,58.5,29.64,West,270,16.1,16.1,67,0.00,BKN,,0.00,WeatherDisplay:10.37,2013-05-15 14:11:00,
2013-05-15 10:17:00,69.8,58.8,29.64,SSW,202,11.5,11.5,68,0.00,BKN,,0.00,WeatherDisplay:10.37,2013-05-15 14:17:00,
2013-05-15 10:22:00,71.2,59.7,29.64,SW,225,10.4,10.4,67,0.00,BKN,,0.00,WeatherDisplay:10.37,2013-05-15 14:22:00,
2013-05-15 10:27:00,71.1,59.6,29.63,SW,225,7.3,7.3,67,0.00,BKN,,0.00,WeatherDisplay:10.37,2013-05-15 14:27:00,
2013-05-15 10:32:00,72.0,60.0,29.63,SW,225,14.5,14.5,66,0.00,BKN,,0.00,WeatherDisplay:10.37,2013-05-15 14:32:00,
2013-05-15 10:35:00,80.0,61.9,29.62,SW,233,6.0,6.0,54,0.00,FEW,,0.00,WeatherDisplay:10.37,2013-05-15 14:35:00,
2013-05-15 10:37:00,71.6,60.1,29.64,SW,225,10.4,10.4,67,0.00,BKN,,0.00,WeatherDisplay:10.37,2013-05-15 14:37:00,
2013-05-15 10:42:00,71.4,59.4,29.64,SW,225,12.7,12.7,66,0.00,BKN,,0.00,WeatherDisplay:10.37,2013-05-15 14:42:00,
2013-05-15 10:47:00,71.2,59.3,29.64,SW,225,13.5,13.5,66,0.00,BKN,,0.00,WeatherDisplay:10.37,2013-05-15 14:47:00,
2013-05-15 10:52:00,70.7,60.0,29.64,WSW,248,9.4,9.4,69,0.00,BKN,,0.00,WeatherDisplay:10.37,2013-05-15 14:52:00,
2013-05-15 10:57:00,70.7,59.6,29.64,SSW,202,11.5,11.5,68,0.00,BKN,,0.00,WeatherDisplay:10.37,2013-05-15 14:57:00,
2013-05-15 11:03:00,71.2,59.7,29.66,SW,225,10.4,10.4,67,0.00,BKN,,0.00,WeatherDisplay:10.37,2013-05-15 15:03:00,
2013-05-15 11:08:00,71.8,60.2,29.66,WSW,248,12.7,12.7,67,0.00,BKN,,0.00,WeatherDisplay:10.37,2013-05-15 15:08:00,
2013-05-15 11:13:00,71.4,59.9,29.66,WSW,248,9.2,9.2,67,0.00,BKN,,0.00,WeatherDisplay:10.37,2013-05-15 15:13:00,
2013-05-15 11:18:00,71.2,59.7,29.67,West,270,9.2,9.2,67,0.00,BKN,,0.00,WeatherDisplay:10.37,2013-05-15 15:18:00,
2013-05-15 11:23:00,70.9,61.0,29.67,SSW,202,10.4,10.4,71,0.00,BKN,,0.00,WeatherDisplay:10.37,2013-05-15 15:23:00,
2013-05-15 11:28:00,70.3,61.2,29.66,WSW,248,10.4,10.4,73,0.00,BKN,,0.00,WeatherDisplay:10.37,2013-05-15 15:28:00,
2013-05-15 11:33:00,70.7,60.8,29.66,WSW,248,13.8,13.8,71,0.00,BKN,,0.00,WeatherDisplay:10.37,2013-05-15 15:33:00,
2013-05-15 11:39:00,71.6,60.5,29.67,SW,225,8.1,8.1,68,0.00,BKN,,0.00,WeatherDisplay:10.37,2013-05-15 15:39:00,
2013-05-15 11:44:00,73.0,60.1,29.67,SW,225,10.4,10.4,64,0.00,BKN,,0.00,WeatherDisplay:10.37,2013-05-15 15:44:00,
2013-05-15 11:49:00,74.7,61.3,29.67,WSW,248,8.1,8.1,63,0.00,BKN,,0.00,WeatherDisplay:10.37,2013-05-15 15:49:00,
2013-05-15 11:54:00,75.0,61.1,29.67,WSW,248,13.8,13.8,62,0.00,BKN,,0.00,WeatherDisplay:10.37,2013-05-15 15:54:00,
2013-05-15 11:59:00,75.0,60.2,29.67,SW,225,10.4,10.4,60,0.00,BKN,,0.00,WeatherDisplay:10.37,2013-05-15 15:59:00,
2013-05-15 12:05:00,77.1,61.7,29.66,SW,226,9.0,14.0,59,0.00,FEW,,0.00,WeatherDisplay:10.37,2013-05-15 16:05:00,
2013-05-15 12:10:00,77.3,60.9,29.66,SW,233,10.0,15.0,57,0.00,FEW,,0.00,WeatherDisplay:10.37,2013-05-15 16:10:00,
2013-05-15 12:15:00,77.2,60.8,29.65,SW,234,13.0,18.0,57,0.00,FEW,,0.00,WeatherDisplay:10.37,2013-05-15 16:15:00,
2013-05-15 12:20:00,77.2,60.8,29.65,SW,228,10.0,15.0,57,0.00,FEW,,0.00,WeatherDisplay:10.37,2013-05-15 16:20:00,
2013-05-15 12:25:00,76.5,60.6,29.65,WSW,248,16.1,16.1,58,0.00,FEW,,0.00,WeatherDisplay:10.37,2013-05-15 16:25:00,
2013-05-15 12:30:00,77.9,60.9,29.64,SW,225,9.9,11.4,56,0.00,FEW,,0.00,WeatherDisplay:10.37,2013-05-15 16:30:00,
2013-05-15 12:35:00,79.3,61.7,29.64,West,270,11.5,11.5,55,0.00,FEW,,0.00,WeatherDisplay:10.37,2013-05-15 16:35:00,
2013-05-15 12:40:00,79.2,61.6,29.63,SW,225,13.8,13.8,55,0.00,FEW,,0.00,WeatherDisplay:10.37,2013-05-15 16:40:00,
2013-05-15 12:46:00,80.1,62.5,29.63,West,270,13.8,13.8,55,0.00,FEW,,0.00,WeatherDisplay:10.37,2013-05-15 16:46:00,
2013-05-15 12:51:00,79.2,61.6,29.65,SW,225,16.1,16.1,55,0.00,FEW,,0.00,WeatherDisplay:10.37,2013-05-15 16:51:00,
2013-05-15 12:56:00,79.7,62.1,29.65,West,270,7.3,7.3,55,0.00,FEW,,0.00,WeatherDisplay:10.37,2013-05-15 16:56:00,
2013-05-15 13:01:00,80.6,62.4,29.63,SW,225,15.0,15.0,54,0.00,CLR,,0.00,WeatherDisplay:10.37,2013-05-15 17:01:00,
2013-05-15 13:06:00,81.3,62.0,29.63,WSW,248,17.3,17.3,52,0.00,CLR,,0.00,WeatherDisplay:10.37,2013-05-15 17:06:00,
2013-05-15 13:11:00,79.5,61.9,29.63,SW,225,16.1,16.1,55,0.00,CLR,,0.00,WeatherDisplay:10.37,2013-05-15 17:11:00,
2013-05-15 13:16:00,79.0,62.5,29.62,SW,225,14.0,14.0,57,0.00,CLR,,0.00,WeatherDisplay:10.37,2013-05-15 17:16:00,
2013-05-15 13:21:00,78.3,61.8,29.62,SW,225,13.8,13.8,57,0.00,CLR,,0.00,WeatherDisplay:10.37,2013-05-15 17:21:00,
2013-05-15 13:26:00,79.3,62.7,29.61,WSW,248,8.3,8.3,57,0.00,CLR,,0.00,WeatherDisplay:10.37,2013-05-15 17:26:00,
2013-05-15 13:31:00,82.6,63.2,29.61,NNW,338,15.0,15.0,52,0.00,CLR,,0.00,WeatherDisplay:10.37,2013-05-15 17:31:00,
2013-05-15 13:36:00,82.9,63.5,29.61,WSW,248,10.4,10.4,52,0.00,CLR,,0.00,WeatherDisplay:10.37,2013-05-15 17:36:00,
2013-05-15 13:41:00,82.8,63.4,29.62,SSW,202,6.3,6.3,52,0.00,CLR,,0.00,WeatherDisplay:10.37,2013-05-15 17:41:00,
2013-05-15 13:47:00,81.7,62.9,29.62,SW,225,8.8,8.8,53,0.00,CLR,,0.00,WeatherDisplay:10.37,2013-05-15 17:47:00,
2013-05-15 13:52:00,81.1,62.3,29.62,SW,225,13.0,13.0,53,0.00,CLR,,0.00,WeatherDisplay:10.37,2013-05-15 17:52:00,
2013-05-15 13:57:00,81.3,62.5,29.62,West,270,10.9,10.9,53,0.00,CLR,,0.00,WeatherDisplay:10.37,2013-05-15 17:57:00,
2013-05-15 14:02:00,83.8,62.6,29.61,SSW,202,13.8,13.8,49,0.00,FEW,,0.00,WeatherDisplay:10.37,2013-05-15 18:02:00,
2013-05-15 14:07:00,84.6,63.3,29.61,West,270,13.8,13.8,49,0.00,FEW,,0.00,WeatherDisplay:10.37,2013-05-15 18:07:00,
2013-05-15 14:12:00,85.6,63.7,29.60,West,270,12.7,12.7,48,0.00,FEW,,0.00,WeatherDisplay:10.37,2013-05-15 18:12:00,
2013-05-15 14:17:00,86.7,63.4,29.60,SW,225,18.1,18.1,46,0.00,FEW,,0.00,WeatherDisplay:10.37,2013-05-15 18:17:00,
2013-05-15 14:22:00,86.0,62.8,29.60,WSW,248,14.0,14.0,46,0.00,FEW,,0.00,WeatherDisplay:10.37,2013-05-15 18:22:00,
2013-05-15 14:27:00,84.4,62.6,29.59,WSW,248,18.4,18.4,48,0.00,FEW,,0.00,WeatherDisplay:10.37,2013-05-15 18:27:00,
2013-05-15 14:32:00,86.4,63.8,29.59,SW,225,12.4,12.4,47,0.00,FEW,,0.00,WeatherDisplay:10.37,2013-05-15 18:32:00,
2013-05-15 14:37:00,86.9,63.0,29.59,WSW,248,18.4,18.4,45,0.00,FEW,,0.00,WeatherDisplay:10.37,2013-05-15 18:37:00,
2013-05-15 14:42:00,86.2,62.4,29.59,SW,225,17.3,17.3,45,0.00,FEW,,0.00,WeatherDisplay:10.37,2013-05-15 18:42:00,
2013-05-15 14:47:00,87.8,63.8,29.59,WSW,248,9.2,9.2,45,0.00,FEW,,0.00,WeatherDisplay:10.37,2013-05-15 18:47:00,
2013-05-15 14:54:00,86.2,63.0,29.58,SW,225,6.3,6.3,46,0.00,FEW,,0.00,WeatherDisplay:10.37,2013-05-15 18:54:00,
2013-05-15 14:59:00,84.6,62.1,29.58,WSW,248,17.3,17.3,47,0.00,FEW,,0.00,WeatherDisplay:10.37,2013-05-15 18:59:00,
2013-05-15 15:04:00,84.0,62.8,29.58,SW,225,13.0,13.0,49,0.00,CLR,,0.00,WeatherDisplay:10.37,2013-05-15 19:04:00,
2013-05-15 15:09:00,84.0,61.6,29.58,SSW,202,18.4,18.4,47,0.00,CLR,,0.00,WeatherDisplay:10.37,2013-05-15 19:09:00,
2013-05-15 15:14:00,84.6,62.1,29.58,SW,225,19.6,19.8,47,0.00,CLR,,0.00,WeatherDisplay:10.37,2013-05-15 19:14:00,
2013-05-15 15:20:00,84.9,62.4,29.58,SW,225,17.3,17.3,47,0.00,CLR,,0.00,WeatherDisplay:10.37,2013-05-15 19:20:00,
2013-05-15 15:25:00,86.0,62.8,29.57,WSW,248,18.4,18.4,46,0.00,CLR,,0.00,WeatherDisplay:10.37,2013-05-15 19:25:00,
2013-05-15 15:30:00,86.4,62.5,29.57,West,270,21.9,21.9,45,0.00,CLR,,0.00,WeatherDisplay:10.37,2013-05-15 19:30:00,
2013-05-15 15:35:00,85.8,62.6,29.57,SW,225,12.7,12.7,46,0.00,CLR,,0.00,WeatherDisplay:10.37,2013-05-15 19:35:00,
2013-05-15 15:40:00,84.9,62.4,29.57,West,270,10.4,10.4,47,0.00,CLR,,0.00,WeatherDisplay:10.37,2013-05-15 19:40:00,
2013-05-15 15:46:00,86.9,63.0,29.57,West,270,16.1,16.1,45,0.00,CLR,,0.00,WeatherDisplay:10.37,2013-05-15 19:46:00,
2013-05-15 15:51:00,87.3,64.0,29.57,SW,225,14.0,14.0,46,0.00,CLR,,0.00,WeatherDisplay:10.37,2013-05-15 19:51:00,
2013-05-15 15:56:00,87.1,63.8,29.57,SSW,202,12.7,12.7,46,0.00,CLR,,0.00,WeatherDisplay:10.37,2013-05-15 19:56:00,
2013-05-15 16:01:00,87.8,63.8,29.57,SW,225,12.7,12.7,45,0.00,CLR,,0.00,WeatherDisplay:10.37,2013-05-15 20:01:00,
2013-05-15 16:07:00,86.5,63.3,29.57,SW,225,17.3,17.3,46,0.00,CLR,,0.00,WeatherDisplay:10.37,2013-05-15 20:07:00,
2013-05-15 16:12:00,85.5,63.0,29.57,SW,225,16.1,16.1,47,0.00,CLR,,0.00,WeatherDisplay:10.37,2013-05-15 20:12:00,
2013-05-15 16:17:00,84.9,62.4,29.57,West,270,16.1,16.1,47,0.00,CLR,,0.00,WeatherDisplay:10.37,2013-05-15 20:17:00,
2013-05-15 16:22:00,84.7,61.0,29.57,WSW,248,23.0,23.0,45,0.00,CLR,,0.00,WeatherDisplay:10.37,2013-05-15 20:22:00,
2013-05-15 16:27:00,84.7,60.4,29.57,SW,225,23.0,23.0,44,0.00,CLR,,0.00,WeatherDisplay:10.37,2013-05-15 20:27:00,
2013-05-15 16:32:00,85.3,60.9,29.57,SW,225,13.8,13.8,44,0.00,FEW,,0.00,WeatherDisplay:10.37,2013-05-15 20:32:00,
2013-05-15 16:37:00,85.8,60.7,29.57,WSW,248,23.2,23.2,43,0.00,FEW,,0.00,WeatherDisplay:10.37,2013-05-15 20:37:00,
2013-05-15 16:42:00,85.8,60.7,29.57,WSW,248,24.2,24.2,43,0.00,FEW,,0.00,WeatherDisplay:10.37,2013-05-15 20:42:00,
2013-05-15 16:47:00,85.6,60.5,29.57,SW,225,16.1,16.1,43,0.00,FEW,,0.00,WeatherDisplay:10.37,2013-05-15 20:47:00,
2013-05-15 16:52:00,85.6,60.5,29.57,WSW,248,21.2,21.2,43,0.00,FEW,,0.00,WeatherDisplay:10.37,2013-05-15 20:52:00,
2013-05-15 16:57:00,85.3,60.9,29.57,SW,225,20.7,20.7,44,0.00,FEW,,0.00,WeatherDisplay:10.37,2013-05-15 20:57:00,
2013-05-15 17:02:00,84.6,60.9,29.57,West,270,26.5,26.5,45,0.00,FEW,,0.00,WeatherDisplay:10.37,2013-05-15 21:02:00,
2013-05-15 17:07:00,84.6,60.9,29.57,WSW,248,26.5,26.5,45,0.00,FEW,,0.00,WeatherDisplay:10.37,2013-05-15 21:07:00,
2013-05-15 17:13:00,86.0,61.5,29.57,West,270,16.1,16.1,44,0.00,FEW,,0.00,WeatherDisplay:10.37,2013-05-15 21:13:00,
2013-05-15 17:18:00,86.0,61.5,29.57,West,270,16.1,16.1,44,0.00,FEW,,0.00,WeatherDisplay:10.37,2013-05-15 21:18:00,
2013-05-15 17:23:00,84.0,61.0,29.57,SW,225,24.2,24.2,46,0.00,FEW,,0.00,WeatherDisplay:10.37,2013-05-15 21:23:00,
2013-05-15 17:28:00,85.8,62.0,29.57,SW,225,16.1,16.1,45,0.00,FEW,,0.00,WeatherDisplay:10.37,2013-05-15 21:28:00,
2013-05-15 17:33:00,86.7,61.5,29.57,WSW,248,19.6,19.6,43,0.00,FEW,,0.00,WeatherDisplay:10.37,2013-05-15 21:33:00,
2013-05-15 17:38:00,86.4,62.5,29.57,WSW,248,19.6,19.6,45,0.00,FEW,,0.00,WeatherDisplay:10.37,2013-05-15 21:38:00,
2013-05-15 17:43:00,86.4,61.9,29.57,West,270,13.8,13.8,44,0.00,FEW,,0.00,WeatherDisplay:10.37,2013-05-15 21:43:00,
2013-05-15 17:48:00,87.1,61.9,29.57,SW,225,25.3,25.3,43,0.00,FEW,,0.00,WeatherDisplay:10.37,2013-05-15 21:48:00,
2013-05-15 17:53:00,86.2,61.7,29.57,SW,225,20.7,20.7,44,0.00,FEW,,0.00,WeatherDisplay:10.37,2013-05-15 21:53:00,
2013-05-15 17:58:00,85.6,60.5,29.57,SW,225,34.5,34.5,43,0.00,FEW,,0.00,WeatherDisplay:10.37,2013-05-15 21:58:00,
2013-05-15 18:04:00,85.8,60.7,29.57,SW,225,28.8,28.8,43,0.00,CLR,,0.00,WeatherDisplay:10.37,2013-05-15 22:04:00,
2013-05-15 18:10:00,85.7,60.6,29.57,SW,226,15.0,29.0,43,0.00,CLR,,0.00,WeatherDisplay:10.37,2013-05-15 22:10:00,
2013-05-15 18:15:00,84.9,60.6,29.56,SW,232,20.0,28.0,44,0.00,CLR,,0.00,WeatherDisplay:10.37,2013-05-15 22:15:00,
2013-05-15 18:20:00,84.7,60.4,29.56,WSW,245,22.0,27.0,44,0.00,CLR,,0.00,WeatherDisplay:10.37,2013-05-15 22:20:00,
2013-05-15 18:25:00,85.3,60.9,29.57,WSW,248,19.6,19.6,44,0.00,CLR,,0.00,WeatherDisplay:10.37,2013-05-15 22:25:00,
2013-05-15 18:31:00,86.0,61.5,29.57,SW,225,18.4,18.4,44,0.00,CLR,,0.00,WeatherDisplay:10.37,2013-05-15 22:31:00,
2013-05-15 18:36:00,85.6,61.2,29.57,WSW,248,19.6,19.6,44,0.00,CLR,,0.00,WeatherDisplay:10.37,2013-05-15 22:36:00,
2013-05-15 18:41:00,85.3,60.9,29.58,West,270,19.1,19.1,44,0.00,CLR,,0.00,WeatherDisplay:10.37,2013-05-15 22:41:00,
2013-05-15 18:46:00,84.9,60.6,29.58,WSW,248,19.6,19.6,44,0.00,CLR,,0.00,WeatherDisplay:10.37,2013-05-15 22:46:00,
2013-05-15 18:51:00,85.1,60.7,29.58,WSW,248,13.8,13.8,44,0.00,CLR,,0.00,WeatherDisplay:10.37,2013-05-15 22:51:00,
2013-05-15 18:57:00,84.9,60.6,29.58,SW,225,23.0,23.0,44,0.00,CLR,,0.00,WeatherDisplay:10.37,2013-05-15 22:57:00,
2013-05-15 19:02:00,84.6,60.9,29.58,West,270,18.4,18.4,45,0.00,CLR,,0.00,WeatherDisplay:10.37,2013-05-15 23:02:00,
2013-05-15 19:07:00,84.4,60.7,29.58,West,270,17.3,17.3,45,0.00,CLR,,0.00,WeatherDisplay:10.37,2013-05-15 23:07:00,
2013-05-15 19:12:00,84.4,60.7,29.58,WSW,248,11.5,11.5,45,0.00,CLR,,0.00,WeatherDisplay:10.37,2013-05-15 23:12:00,
2013-05-15 19:17:00,83.8,60.8,29.58,SSW,202,17.3,17.3,46,0.00,CLR,,0.00,WeatherDisplay:10.37,2013-05-15 23:17:00,
2013-05-15 19:23:00,83.5,60.5,29.58,SW,225,13.8,13.8,46,0.00,CLR,,0.00,WeatherDisplay:10.37,2013-05-15 23:23:00,
2013-05-15 19:28:00,83.3,61.0,29.58,SW,225,14.0,14.0,47,0.00,CLR,,0.00,WeatherDisplay:10.37,2013-05-15 23:28:00,
2013-05-15 19:33:00,83.3,61.0,29.58,SW,225,14.0,14.0,47,0.00,CLR,,0.00,WeatherDisplay:10.37,2013-05-15 23:33:00,
2013-05-15 19:38:00,82.9,61.2,29.58,West,270,15.0,15.0,48,0.00,CLR,,0.00,WeatherDisplay:10.37,2013-05-15 23:38:00,
2013-05-15 19:44:00,82.6,61.5,29.58,West,270,13.8,13.8,49,0.00,CLR,,0.00,WeatherDisplay:10.37,2013-05-15 23:44:00,
2013-05-15 19:49:00,82.4,61.3,29.59,SW,225,11.5,11.5,49,0.00,CLR,,0.00,WeatherDisplay:10.37,2013-05-15 23:49:00,
2013-05-15 19:54:00,82.0,61.5,29.59,West,270,10.4,10.4,50,0.00,CLR,,0.00,WeatherDisplay:10.37,2013-05-15 23:54:00,
2013-05-15 19:59:00,81.5,61.6,29.59,West,270,9.2,9.2,51,0.00,CLR,,0.00,WeatherDisplay:10.37,2013-05-15 23:59:00,
2013-05-15 20:04:00,81.1,61.3,29.59,West,270,11.5,11.5,51,0.00,FEW,,0.00,WeatherDisplay:10.37,2013-05-16 00:04:00,
2013-05-15 20:09:00,80.8,61.5,29.59,SW,225,7.8,7.8,52,0.00,FEW,,0.00,WeatherDisplay:10.37,2013-05-16 00:09:00,
2013-05-15 20:14:00,80.8,61.5,29.60,WSW,248,9.2,9.2,52,0.00,FEW,,0.00,WeatherDisplay:10.37,2013-05-16 00:14:00,
2013-05-15 20:19:00,80.4,61.2,29.60,WSW,248,8.3,8.3,52,0.00,FEW,,0.00,WeatherDisplay:10.37,2013-05-16 00:19:00,
2013-05-15 20:24:00,80.2,61.5,29.60,SW,225,8.1,8.1,53,0.00,FEW,,0.00,WeatherDisplay:10.37,2013-05-16 00:24:00,
2013-05-15 20:29:00,79.9,61.8,29.60,SW,225,8.1,8.1,54,0.00,FEW,,0.00,WeatherDisplay:10.37,2013-05-16 00:29:00,
2013-05-15 20:40:00,79.2,61.6,29.62,WSW,248,6.3,6.3,55,0.00,FEW,,0.00,WeatherDisplay:10.37,2013-05-16 00:40:00,
2013-05-15 20:45:00,79.0,61.5,29.60,WSW,248,5.8,5.8,55,0.00,FEW,,0.00,WeatherDisplay:10.37,2013-05-16 00:45:00,
2013-05-15 20:50:00,78.8,61.3,29.60,West,270,6.9,6.9,55,0.00,FEW,,0.00,WeatherDisplay:10.37,2013-05-16 00:50:00,
2013-05-15 20:55:00,78.8,61.8,29.60,SW,225,5.8,5.8,56,0.00,FEW,,0.00,WeatherDisplay:10.37,2013-05-16 00:55:00,
2013-05-15 21:00:00,78.1,61.6,29.60,SW,230,3.0,4.0,57,0.00,FEW,,0.00,WeatherDisplay:10.37,2013-05-16 01:00:00,
2013-05-15 21:05:00,77.9,61.4,29.60,SW,231,3.0,5.0,57,0.00,BKN,,0.00,WeatherDisplay:10.37,2013-05-16 01:05:00,
2013-05-15 21:10:00,77.7,61.7,29.60,SW,223,5.0,5.0,58,0.00,BKN,,0.00,WeatherDisplay:10.37,2013-05-16 01:10:00,
2013-05-15 21:15:00,77.5,61.6,29.61,SW,225,4.7,4.7,58,0.00,BKN,,0.00,WeatherDisplay:10.37,2013-05-16 01:15:00,
2013-05-15 21:20:00,77.5,62.0,29.61,SSW,202,4.7,4.7,59,0.00,BKN,,0.00,WeatherDisplay:10.37,2013-05-16 01:20:00,
2013-05-15 21:25:00,77.0,61.6,29.61,SW,225,4.6,4.6,59,0.00,BKN,,0.00,WeatherDisplay:10.37,2013-05-16 01:25:00,
2013-05-15 21:34:00,76.8,61.9,29.61,WSW,248,4.6,4.6,60,0.00,BKN,,0.00,WeatherDisplay:10.37,2013-05-16 01:34:00,
2013-05-15 21:39:00,76.6,61.7,29.61,SW,225,5.8,5.8,60,0.00,BKN,,0.00,WeatherDisplay:10.37,2013-05-16 01:39:00,
2013-05-15 21:44:00,77.0,61.6,29.61,WSW,248,5.8,5.8,59,0.00,BKN,,0.00,WeatherDisplay:10.37,2013-05-16 01:44:00,
2013-05-15 21:50:00,76.8,61.4,29.62,SW,227,5.0,6.0,59,0.00,BKN,,0.00,WeatherDisplay:10.37,2013-05-16 01:50:00,
2013-05-15 21:55:00,77.0,61.1,29.62,SW,233,6.0,7.0,58,0.00,BKN,,0.00,WeatherDisplay:10.37,2013-05-16 01:55:00,
2013-05-15 22:00:00,76.8,61.4,29.62,SW,229,6.0,7.0,59,0.00,BKN,,0.00,WeatherDisplay:10.37,2013-05-16 02:00:00,
2013-05-15 22:05:00,77.0,61.1,29.63,SW,222,6.0,7.0,58,0.00,BKN,,0.00,WeatherDisplay:10.37,2013-05-16 02:05:00,
2013-05-15 22:10:00,76.8,61.4,29.63,SW,229,6.0,6.0,59,0.00,BKN,,0.00,WeatherDisplay:10.37,2013-05-16 02:10:00,
2013-05-15 22:15:00,76.6,61.2,29.63,WSW,240,6.0,7.0,59,0.00,BKN,,0.00,WeatherDisplay:10.37,2013-05-16 02:15:00,
2013-05-15 22:20:00,76.6,61.2,29.63,SW,225,4.6,4.6,59,0.00,BKN,,0.00,WeatherDisplay:10.37,2013-05-16 02:20:00,
2013-05-15 22:25:00,76.3,61.4,29.63,SW,225,5.3,5.3,60,0.00,BKN,,0.00,WeatherDisplay:10.37,2013-05-16 02:25:00,
2013-05-15 22:30:00,76.1,61.2,29.63,WSW,248,5.8,5.8,60,0.00,BKN,,0.00,WeatherDisplay:10.37,2013-05-16 02:30:00,
2013-05-15 22:35:00,75.7,61.3,29.63,SW,225,5.8,5.8,61,0.00,BKN,,0.00,WeatherDisplay:10.37,2013-05-16 02:35:00,
2013-05-15 22:40:00,75.9,61.5,29.63,WSW,248,9.2,9.2,61,0.00,BKN,,0.00,WeatherDisplay:10.37,2013-05-16 02:40:00,
2013-05-15 22:45:00,75.9,61.0,29.63,SW,225,5.8,6.0,60,0.00,BKN,,0.00,WeatherDisplay:10.37,2013-05-16 02:45:00,
2013-05-15 22:50:00,75.7,61.3,29.63,SSW,202,6.9,6.9,61,0.00,BKN,,0.00,WeatherDisplay:10.37,2013-05-16 02:50:00,
2013-05-15 22:55:00,75.6,61.2,29.63,SW,225,8.3,8.3,61,0.00,BKN,,0.00,WeatherDisplay:10.37,2013-05-16 02:55:00,
2013-05-15 23:00:00,75.6,61.2,29.63,SW,225,7.8,7.8,61,0.00,BKN,,0.00,WeatherDisplay:10.37,2013-05-16 03:00:00,
2013-05-15 23:05:00,75.6,61.2,29.63,SW,225,8.1,8.1,61,0.00,FEW,,0.00,WeatherDisplay:10.37,2013-05-16 03:05:00,
2013-05-15 23:10:00,75.7,61.3,29.63,SSW,202,8.1,8.1,61,0.00,FEW,,0.00,WeatherDisplay:10.37,2013-05-16 03:10:00,
2013-05-15 23:15:00,75.6,61.2,29.63,WSW,248,8.8,8.8,61,0.00,FEW,,0.00,WeatherDisplay:10.37,2013-05-16 03:15:00,
2013-05-15 23:20:00,75.6,61.2,29.63,SSW,202,8.1,8.1,61,0.00,FEW,,0.00,WeatherDisplay:10.37,2013-05-16 03:20:00,
2013-05-15 23:25:00,75.4,61.0,29.63,SSW,202,6.9,6.9,61,0.00,FEW,,0.00,WeatherDisplay:10.37,2013-05-16 03:25:00,
2013-05-15 23:30:00,75.2,61.3,29.63,WSW,248,6.9,6.9,62,0.00,FEW,,0.00,WeatherDisplay:10.37,2013-05-16 03:30:00,
2013-05-15 23:35:00,75.0,61.1,29.63,WSW,248,6.9,6.9,62,0.00,FEW,,0.00,WeatherDisplay:10.37,2013-05-16 03:35:00,
2013-05-15 23:40:00,74.8,60.9,29.63,SW,225,5.8,5.8,62,0.00,FEW,,0.00,WeatherDisplay:10.37,2013-05-16 03:40:00,
2013-05-15 23:45:00,74.7,61.3,29.63,SW,225,5.8,5.8,63,0.00,FEW,,0.00,WeatherDisplay:10.37,2013-05-16 03:45:00,
2013-05-15 23:50:00,74.8,60.9,29.63,WSW,248,5.8,5.8,62,0.00,FEW,,0.00,WeatherDisplay:10.37,2013-05-16 03:50:00,
2013-05-15 23:55:00,74.8,60.9,29.63,WSW,248,5.8,5.8,62,0.00,FEW,,0.00,WeatherDisplay:10.37,2013-05-16 03:55:00,